This is the latest recevied weather packets stored in our database for station/object GBTWP-2. If no packets are shown the sender has not sent any weather packets the latest 10 day(s).
| Time | Temp. | Humidity | Pressure | Rain* | Wind** | Luminosity | Snow |
|---|---|---|---|---|---|---|---|
| 1788361020 | 31.11° C | 71% | 1017 hPa | 0 mm | - | 399 W/m² | - |
| 1788360719 | 30.56° C | 70% | 1017 hPa | 0 mm | - | 422 W/m² | - |
| 1788360426 | 30.56° C | 71% | 1017.1 hPa | 0 mm | - | 362 W/m² | - |
| 1788360119 | 30° C | 71% | 1017.1 hPa | 0 mm | - | 392 W/m² | - |
| 1788359820 | 30° C | 73% | 1016.8 hPa | 0 mm | - | 349 W/m² | - |
| 1788359517 | 29.44° C | 75% | 1017.2 hPa | 0 mm | - | 373 W/m² | - |
| 1788359220 | 29.44° C | 75% | 1017 hPa | 0 mm | - | 339 W/m² | - |
| 1788358919 | 29.44° C | 75% | 1017 hPa | 0 mm | - | 181 W/m² | - |
| 1788358620 | 29.44° C | 75% | 1017.1 hPa | 0 mm | - | 330 W/m² | - |
| 1788358319 | 28.89° C | 77% | 1017.2 hPa | 0 mm | - | 307 W/m² | - |
| 1788358020 | 29.44° C | 76% | 1017.2 hPa | 0 mm | - | 300 W/m² | - |
| 1788357719 | 28.89° C | 77% | 1017.3 hPa | 0 mm | - | 258 W/m² | - |
| 1788357420 | 28.89° C | 78% | 1017.1 hPa | 0 mm | - | 270 W/m² | - |
| 1788357119 | 28.89° C | 78% | 1017.2 hPa | 0 mm | - | 241 W/m² | - |
| 1788356820 | 28.89° C | 78% | 1017 hPa | 0 mm | - | 246 W/m² | - |
| 1788356519 | 28.33° C | 78% | 1017.2 hPa | 0 mm | - | 237 W/m² | - |
| 1788356220 | 27.78° C | 79% | 1017.4 hPa | 0 mm | - | 231 W/m² | - |
| 1788355919 | 27.78° C | 79% | 1017.3 hPa | 0 mm | - | 216 W/m² | - |
| 1788355620 | 27.22° C | 80% | 1017.3 hPa | 0 mm | - | 226 W/m² | - |
| 1788355318 | 27.22° C | 81% | 1017.5 hPa | 0 mm | - | 85 W/m² | - |
| 1788355020 | 26.67° C | 81% | 1017.8 hPa | 0 mm | - | 209 W/m² | - |
| 1788354720 | 26.67° C | 83% | 1017.6 hPa | 0 mm | - | 194 W/m² | - |
| 1788354419 | 26.67° C | 83% | 1017.8 hPa | 0 mm | - | 179 W/m² | - |
| 1788354117 | 26.67° C | 84% | 1017.6 hPa | 0 mm | - | 131 W/m² | - |
| 1788353819 | 26.11° C | 85% | 1017.5 hPa | 0 mm | - | 124 W/m² | - |
* Rain latest hour (hover to see other rain measurements)
** Current wind speed in m/s (hover to see current wind gust speed)